{"data":{"norad_id":63190,"intl_designator":"2025-048H","name":"STARLINK-11637 [DTC]","alt_names":[],"object_type":"PAYLOAD","status":"ACTIVE","operator":null,"country":"US","launch_date":"2025-03-13","launch_site_code":"AFETR","launch_vehicle":null,"mission":null,"orbit_class":"UNKNOWN","rcs_meters":null,"size_class":null,"mass_kg":null,"dimensions":null,"purposes":["comms"],"wikipedia_slug":null,"has_3d_model":false,"image_url":null,"decayed_at":null,"tle_current":{"epoch":"2026-09-21T13:40:52.615488Z","epoch_age_seconds":69829,"freshness":"FRESH","line1":"1 63190U 25048H   26264.57005342  .00137126  00000+0  10534-2 0  9998","line2":"2 63190  42.9994 219.5892 0000661 355.3294   4.7567 15.70866475 89328","mean_motion":15.70866475,"eccentricity":6.61e-5,"inclination_deg":42.9994,"raan_deg":219.5892,"arg_perigee_deg":355.3294,"mean_anomaly_deg":4.7567,"bstar":0.0010534,"rev_number":8932,"period_min":91.669153484226,"perigee_km":355.97423794894,"apogee_km":356.86454630398,"semimajor_km":6734.5563921265,"source":"CELESTRAK","updated_at":"2026-09-22T09:00:49.795896Z"}}}